This demonstration page uses our WeatherBlox Daily Observations layout. Learn more.

Left ArrowRight Arrow

Hourly Observations for February 26, 2019

Temp ( °F °C ) Dew Point ( °F °C ) Humidity (%) Winds ( mph kmh ) Pressure ( in mb ) Visibility ( mi km ) Precip ( " mm )
12:53 am 00:53 Clear 42 5.6 36 2.2 79 79 Calm 30.35 1028 10 16 0.00 0.00
1:53 am 01:53 Clear 41 5 35 1.7 79 79 Calm 30.36 1028 10 16 0.00 0.00
2:53 am 02:53 Clear 40 4.4 37 2.8 89 89 Calm 30.35 1028 10 16 0.00 0.00
3:53 am 03:53 Clear 41 5 37 2.8 86 86 Calm 30.35 1028 10 16 0.00 0.00
4:53 am 04:53 Clear 41 5 38 3.3 89 89 Calm 30.36 1028 10 16 0.00 0.00
5:53 am 05:53 Clear 42 5.6 38 3.3 85 85 NNE 3 6 30.37 1029 10 16 0.00 0.00
6:53 am 06:53 Partly Cloudy 43 6.1 37 2.8 80 80 NNE 3 6 30.37 1028 10 16 0.00 0.00
7:53 am 07:53 Cloudy 46 7.8 35 1.7 66 66 Calm 30.37 1028 10 16 0.00 0.00
8:53 am 08:53 Partly Cloudy 49 9.4 37 2.8 64 64 Calm 30.37 1028 10 16 0.00 0.00
9:53 am 09:53 Mostly Cloudy 56 13.3 35 1.7 46 46 Calm 30.37 1029 10 16 0.00 0.00
10:53 am 10:53 Cloudy 59 15 29 -1.7 32 32 ENE 3 6 30.37 1028 10 16 0.00 0.00
11:53 am 11:53 Partly Cloudy 62 16.7 36 2.2 38 38 VRB 5 7 30.34 1027 10 16 0.00 0.00
12:53 pm 12:53 Cloudy 64 17.8 42 5.6 45 45 VRB 7 11 30.32 1027 10 16 0.00 0.00
1:53 pm 13:53 Cloudy 65 18.3 46 7.8 51 51 S 8 13 30.28 1026 10 16 0.00 0.00
2:53 pm 14:53 Cloudy 66 18.9 48 8.9 52 52 SSW 7 11 30.27 1025 10 16 0.00 0.00
3:53 pm 15:53 Cloudy 65 18.3 48 8.9 54 54 SW 6 9 30.26 1025 10 16 0.00 0.00
4:53 pm 16:53 Cloudy 64 17.8 49 9.4 58 58 SSW 3 6 30.25 1024 10 16 0.00 0.00
5:53 pm 17:53 Mostly Cloudy 64 17.8 48 8.9 56 56 S 6 9 30.24 1024 10 16 0.00 0.00
6:53 pm 18:53 Cloudy 63 17.2 48 8.9 58 58 ESE 3 6 30.23 1024 10 16 0.00 0.00
7:53 pm 19:53 Mostly Clear 61 16.1 49 9.4 65 65 E 3 6 30.23 1024 10 16 0.00 0.00
8:53 pm 20:53 Mostly Cloudy 57 13.9 51 10.6 81 81 Calm 30.23 1024 10 16 0.00 0.00
9:53 pm 21:53 Cloudy 57 13.9 51 10.6 81 81 Calm 30.24 1024 10 16 0.00 0.00
10:53 pm 22:53 Cloudy 60 15.6 51 10.6 72 72 Calm 30.23 1024 10 16 0.00 0.00
11:53 pm 23:53 Cloudy 56 13.3 50 10 81 81 Calm 30.20 1023 10 16 0.00 0.00

Powered by AerisWeather